Regional Weather Roundup
Issued by NWS Albany, NY

Current Version | Previous Version | Text Only | Print | Product List | Glossary On
Versions: 1 2 3 4 5 6 7 8 9 10 11 12 13 14 15 16 17 18 19 20 21 22 23 24 25 26 27 28 29 30 31 32 33 34 35 36 37 38 39 40 41 42 43 44 45 46 47 48 49 50
000
ASUS41 KALY 201810
RWRALY

NEW YORK STATE HOURLY WEATHER ROUNDUP
NATIONAL WEATHER SERVICE ALBANY NY
100 PM EST TUE FEB 20 2018

NOTE: "FAIR" INDICATES FEW OR NO CLOUDS BELOW 12,000 FEET WITH NO
SIGNIFICANT WEATHER AND/OR NO OBSTRUCTIONS TO VISIBILITY.

NYZ032-033-038>043-046>054-057>066-NYZ062>081-082-084-201900-
EAST


CITY           SKY/WX    TMP DP  RH WIND       PRES   REMARKS
ALBANY         PTSUNNY   56  46  69 S13       30.19F
GLENS FALLS    CLOUDY    49  44  83 S9        30.17F
POUGHKEEPSIE   FAIR      59  49  69 SW8       30.25F
NEWBURGH       MOSUNNY   61  54  77 W8        30.27F
MONTGOMERY     FAIR      57  50  77 SW8       30.24F
WHITE PLAINS   FAIR      59  51  75 SW7       30.27F
ISLIP          PTSUNNY   63  54  72 SW14      30.29F
NEW YORK CITY  PTSUNNY   60  51  72 SW12      30.29F
CENTRAL PARK   FAIR      59  52  77 SW12G18   30.32F
$$

NYZ005>009-017-018-044>046-055-056-201900-
CENTRAL


CITY           SKY/WX    TMP DP  RH WIND       PRES   REMARKS
FULTON         CLOUDY    52  51  97 E5        30.09F FOG
SYRACUSE       CLOUDY    62  56  80 S9        30.10F
ROME           CLOUDY    52  50  93 E7        30.15F
ELMIRA         FAIR      67  55  65 SW16      30.14F
BINGHAMTON     FAIR      59  50  72 SW14      30.18F
MONTICELLO     FAIR      53  49  86 CALM      30.26F
$$

NYZ026>034-041>043-087-201900-
NORTH


CITY           SKY/WX    TMP DP  RH WIND       PRES   REMARKS
WATERTOWN      LGT RAIN  54  54 100 S9G17     30.07S FOG
FORT DRUM      NOT AVBL
OGDENSBURG     LGT RAIN  38  38  99 CALM      30.08S
MASSENA        LGT RAIN  37  37 100 E8        30.10S FOG     WCI  31
SARANAC LAKE   CLOUDY    51  51 100 SW8       30.06F FOG
PLATTSBURGH    LGT RAIN  44  42  93 CALM      30.08F FOG
$$

NYZ001>004-010>016-019>021-085-201900-
WEST


CITY           SKY/WX    TMP DP  RH WIND       PRES   REMARKS
NIAGARA FALLS  LGT RAIN  60  53  77 SW14G22   30.04R
BUFFALO        LGT RAIN  66  57  72 SW14      30.04S
DUNKIRK        CLOUDY    69  56  62 SW17G25   30.06R
JAMESTOWN        N/A    N/A N/A N/A MISG        N/A
WELLSVILLE     FAIR      68  56  65 SW13      30.16R
ROCHESTER      PTSUNNY   70  58  65 SW12      30.04F
PENN YAN       PTSUNNY   66  52  60 S13       30.11F
$$

             KEY
       WCI = WIND CHILL INDEX
       VSB = VISIBILITY
       HX  = HEAT INDEX
$$



USA.gov is the U.S. government's official web portal to all federal, state and local government web resources and services.